Weather History for GMAD - November, 2011

Change the Weather History Date:

Thursday, November 24, 2011

  Actual Average Record
Temperature  
Mean Temperature 60 °F -  
Max Temperature 71 °F - - ()
Min Temperature 48 °F - - ()
Degree Days  
Heating Degree Days 6    
Growing Degree Days 10 (Base 50)    
Moisture  
Dew Point 48 °F    
Average Humidity 72    
Maximum Humidity 94    
Minimum Humidity 31    
Precipitation  
Precipitation 0.00 in - - ()
Sea Level Pressure  
Sea Level Pressure 30.01 in    
Wind  
Wind Speed 5 mph ()    
Max Wind Speed 24 mph    
Max Gust Speed -    
Visibility 6.2 miles    
Events      
T = Trace of Precipitation, MM = Missing Value Source: Averaged Metar Reports

Daily Weather History Graph

Daily Weather History Graph

Search for Another Location

Airport or City:

Trip Planner

Search our weather history database for the weather conditions in past years. The results will help you decide how hot, cold, wet, or windy it might be!

Date:

Astronomy

Nov. 24, 2011 Rise Set
Actual Time 7:10 AM WET 5:37 PM WET
Civil Twilight 6:44 AM WET 6:03 PM WET
Nautical Twilight 6:15 AM WET 6:32 PM WET
Astronomical Twilight 5:46 AM WET 7:01 PM WET
Moon 6:11 AM WET (11/24) 4:58 PM WET (11/24)
Length of Visible Light 11h 18m
Length of Day
10h 27m
Waning Crescent, 1% of the Moon is Illuminated
Nov 24
Waning Crescent
Nov 25
New
Dec 2
First Quarter
Dec 10
Full
Dec 18
Last Quarter

Hourly Weather History & Observations

Time (WET) Temp. Dew Point Humidity Pressure Visibility Wind Dir Wind Speed Gust Speed Precip Events Conditions
12:00 AM 57.2 °F 53.6 °F 88% 30.01 in 6.2 mi ENE 4.6 mph - N/A   Unknown
1:00 AM 57.2 °F 51.8 °F 82% 30.01 in 6.2 mi ENE 4.6 mph - N/A   Unknown
2:00 AM 55.4 °F 51.8 °F 88% 29.98 in 6.2 mi ENE 4.6 mph - N/A   Unknown
3:00 AM 55 °F 51 °F 83% 29.99 in 6 mi East 5.8 mph - -  
3:00 AM 55.4 °F 51.8 °F 88% 29.98 in 6.2 mi East 5.8 mph - N/A   Unknown
4:00 AM 55.4 °F 51.8 °F 88% 29.95 in 6.2 mi ENE 9.2 mph - N/A   Unknown
5:00 AM 53.6 °F 51.8 °F 94% 29.95 in 6.2 mi Variable 2.3 mph - N/A   Unknown
6:00 AM 52 °F 49 °F 86% 29.97 in 6 mi Calm Calm - -  
6:00 AM 51.8 °F 50.0 °F 94% 29.95 in 6.2 mi Calm Calm - N/A   Unknown
7:00 AM 51.8 °F 50.0 °F 94% 29.98 in 6.2 mi Calm Calm - N/A   Scattered Clouds
8:00 AM 53.6 °F 50.0 °F 88% 30.01 in 6.2 mi East 3.5 mph - N/A   Unknown
9:00 AM 59 °F 55 °F 81% 30.03 in 6 mi ESE 2.3 mph - -  
9:00 AM 59.0 °F 55.4 °F 88% 30.01 in 6.2 mi ESE 2.3 mph - N/A   Unknown
10:00 AM 60.8 °F 53.6 °F 77% 30.04 in 6.2 mi Variable 2.3 mph - N/A   Scattered Clouds
4:00 PM 71.6 °F 39.2 °F 31% 29.95 in 6.2 mi East 24.2 mph - N/A   Scattered Clouds
5:00 PM 69.8 °F 37.4 °F 31% 29.98 in 6.2 mi East 20.7 mph - N/A   Scattered Clouds
6:00 PM 66.2 °F 39.2 °F 37% 30.01 in 6.2 mi ENE 10.4 mph - N/A   Scattered Clouds
7:00 PM 60.8 °F 42.8 °F 52% 30.04 in 6.2 mi North 5.8 mph - N/A   Partly Cloudy
8:00 PM 60.8 °F 42.8 °F 52% 30.06 in 6.2 mi NNE 8.1 mph - N/A   Partly Cloudy
9:00 PM 58 °F 43 °F 47% 30.09 in 6 mi East 5.8 mph - -  
9:00 PM 57.2 °F 42.8 °F 59% 30.06 in 6.2 mi East 5.8 mph - N/A   Unknown
10:00 PM 57.2 °F 42.8 °F 59% 30.09 in 6.2 mi ESE 4.6 mph - N/A   Scattered Clouds
11:00 PM 57.2 °F 42.8 °F 59% 30.09 in 6.2 mi ESE 5.8 mph - N/A   Scattered Clouds